Погода в Каймане

Индонезия     3°34′08″S   134°04′20″E
темп.,
°C
ветер,
м/с
пор.,
м/с
влажн.,
%
обл.,
%
осадки,
мм/ч
давл.,
гПа
погр.,
м
5 августа, чт
чт500:00+21юз1199100 1.0 101544
03:00+20юз0110092 1.9 101364
06:00+21ююв1310097 3.1 1014176
09:00+21всв1299100 7.1 1015130
12:00+21св1198100 2.4 1014139
15:00+22ююв0198100 2.8 1012144
18:00+21ююз1199100 0.0 101353
21:00+21ю019985 0.0 101640
6 августа, пт
пт600:00+20ююв019981 0.0 101529
03:00+19ююв129982 0.0 101353
06:00+19вюв1199100 0.0 101448
09:00+23ю248589 0.0 1015435
12:00+27ю346475 0.1 10131280
15:00+26ю35668 0.3 10111088
18:00+22ю249110 0.0 1012170
21:00+20ююв139951 0.0 1014113
7 августа, сб
сб700:00+20ю019972 0.0 101465
03:00+20юв1199100 0.0 101356
06:00+20юв0199100 0.0 101355
09:00+25юв127398 0.0 1014555
12:00+29ю225738 0.0 10121415
15:00+26ююз227967 0.9 1010568
18:00+22ю129647 2.1 1012133
21:00+21вюв019962 2.4 101541
8 августа, вс
вс800:00+21св119987 0.1 101443
03:00+20св119896 0.1 101316
06:00+20ссв119821 0.0 101321
09:00+25ююв008119 0.1 1014499
12:00+25ююз118993 4.2 1012534
15:00+24ююз1193100 10.8 1011389
18:00+22ююз119894 5.5 101254
21:00+21всв0199100 13.3 101355
9 августа, пн
пн900:00+21с1298100 7.8 101353
03:00+21с1299100 16.3 101266
06:00+21св1199100 2.6 101234
09:00+22всв1196100 2.6 1014109
12:00+22св1297100 0.7 1013166
15:00+23св1194100 1.6 1011226
18:00+22в1198100 0.8 101117
21:00+21всв119895 0.8 101318